NORTHEAST SUFFOLK  -  Winter Weather Advisory Winter Weather Advisory        NORTHERN NASSAU  -  Winter Weather Advisory Winter Weather Advisory        NORTHWEST SUFFOLK  -  Winter Weather Advisory Winter Weather Advisory        SOUTHEAST SUFFOLK  -  Winter Weather Advisory Winter Weather Advisory        SOUTHERN NASSAU  -  Winter Weather Advisory Winter Weather Advisory        SOUTHWEST SUFFOLK  -  Winter Weather Advisory Winter Weather Advisory      

Active alerts

Northern Nassau
  Details for Northern Nassau Winter Weather Advisory
Southern Nassau
  Details for Southern Nassau Winter Weather Advisory
Northwest Suffolk
  Details for Northwest Suffolk Winter Weather Advisory
Southwest Suffolk
  Details for Southwest Suffolk Winter Weather Advisory
Northeast Suffolk
  Details for Northeast Suffolk Winter Weather Advisory
Southeast Suffolk
  Details for Southeast Suffolk Winter Weather Advisory


WXM80 ListenWXM80 Stop

You find our weather info also at:

UK Metoffice

WeatherCloud

Weather Underground

Northeastern Weather Network

AWEKAS

Citizen Weather Observer Program (CWOP)

HAMweather, WeatherForYou, PWS Weather


Weather Underground History page Text

Daily Summary for September 3, 2017 Units:  English    Metric   Both
« Previous Day
Next Day »
Daily Weekly Monthly Yearly Custom
  High: Low: Average:
Temperature: 70.1 °F 57.2 °F 63 °F
Dew Point: 69.5 °F 55.6 °F 60.8 °F
Humidity: 98 % 81 % 93 %
Wind Speed: 7.3 mph 0.0 mph 1.5 mph
Wind Gust: 19.6 mph - -
Wind:- - South
Pressure: 30.08 in 29.77 in -
Precipitation: 0.46 in    
Historical Graphs
 
 
Tabular Data for September 3, 2017
Time Temperature Dew Point Pressure Wind Wind Speed Wind Gust Humidity Rainfall Rate (Hourly)
00:02 57.7 °F 55.7 °F 30.08 in Calm   1.2 mph 93 % 0.14 in
00:07 57.7 °F 55.7 °F 30.08 in ESE 0.1 mph 1.2 mph 93 % 0.15 in
00:12 57.6 °F 55.6 °F 30.07 in ESE 0.5 mph 2.3 mph 93 % 0.19 in
00:17 57.6 °F 55.9 °F 30.06 in ESE 1.1 mph 2.3 mph 94 % 0.02 in
00:22 57.6 °F 55.9 °F 30.07 in ESE 0.8 mph 2.3 mph 94 % 0.04 in
00:27 57.5 °F 55.8 °F 30.06 in SE 0.8 mph 1.2 mph 94 % 0.04 in
00:32 57.4 °F 55.7 °F 30.06 in ESE 0.6 mph 2.3 mph 94 % 0.04 in
00:37 57.4 °F 55.7 °F 30.06 in ESE 1.5 mph 4.0 mph 94 % 0.04 in
00:42 57.3 °F 55.6 °F 30.05 in ESE 1.5 mph 2.3 mph 94 % 0.03 in
00:47 57.3 °F 55.9 °F 30.05 in ESE 1.8 mph 2.3 mph 95 % 0.02 in
00:52 57.2 °F 55.8 °F 30.05 in ESE 1.5 mph 3.5 mph 95 % 0.02 in
00:57 57.2 °F 55.8 °F 30.05 in ESE 1.7 mph 4.0 mph 95 % 0.00 in
01:02 57.2 °F 55.8 °F 30.05 in ESE 1.8 mph 3.0 mph 95 % 0.21 in
01:07 57.2 °F 55.8 °F 30.04 in ESE 1.7 mph 3.5 mph 95 % 0.20 in
01:12 57.2 °F 55.8 °F 30.03 in ESE 1.2 mph 2.3 mph 95 % 0.16 in
01:17 57.2 °F 55.8 °F 30.03 in SE 2.1 mph 3.5 mph 95 % 0.13 in
01:22 57.3 °F 56.2 °F 30.03 in ESE 1.5 mph 3.5 mph 96 % 0.10 in
01:27 57.3 °F 56.2 °F 30.03 in ESE 0.8 mph 2.3 mph 96 % 0.11 in
01:32 57.4 °F 56.3 °F 30.02 in ESE 0.9 mph 3.5 mph 96 % 0.10 in
01:37 57.5 °F 56.4 °F 30.02 in ESE 0.5 mph 2.3 mph 96 % 0.10 in
01:42 57.6 °F 56.5 °F 30.02 in Calm   1.2 mph 96 % 0.11 in
01:47 57.6 °F 56.5 °F 30.02 in Calm   1.2 mph 96 % 0.10 in
01:52 57.6 °F 56.5 °F 30.02 in ESE 2.0 mph 3.5 mph 96 % 0.09 in
01:57 57.7 °F 56.6 °F 30.02 in ESE 1.7 mph 3.5 mph 96 % 0.08 in
02:02 57.8 °F 56.7 °F 30.01 in East 1.4 mph 3.5 mph 96 % 0.11 in
02:07 57.9 °F 56.8 °F 30.01 in ESE 0.7 mph 2.3 mph 96 % 0.10 in
02:12 57.9 °F 56.8 °F 30.01 in East 1.3 mph 3.5 mph 96 % 0.09 in
02:17 58.0 °F 56.9 °F 30.00 in East 1.4 mph 2.3 mph 96 % 0.08 in
02:22 58.1 °F 57.3 °F 30.00 in ESE 1.2 mph 3.5 mph 97 % 0.08 in
02:27 58.1 °F 57.3 °F 30.00 in East 1.0 mph 1.2 mph 97 % 0.07 in
02:32 58.1 °F 57.3 °F 29.99 in East 0.6 mph 2.3 mph 97 % 0.07 in
02:37 58.1 °F 57.3 °F 29.99 in ESE 2.0 mph 3.5 mph 97 % 0.06 in
02:43 58.2 °F 57.4 °F 29.99 in ESE 0.5 mph 2.3 mph 97 % 0.05 in
02:48 58.2 °F 57.4 °F 29.99 in ESE 1.2 mph 3.5 mph 97 % 0.06 in
02:53 58.2 °F 57.4 °F 29.99 in ENE 1.8 mph 3.5 mph 97 % 0.05 in
02:58 58.2 °F 57.4 °F 29.99 in East 1.5 mph 3.5 mph 97 % 0.04 in
03:03 58.1 °F 57.3 °F 29.99 in East 0.7 mph 3.5 mph 97 % 0.01 in
03:08 58.2 °F 57.4 °F 29.99 in SE 1.2 mph 3.5 mph 97 % 0.01 in
03:13 58.2 °F 57.4 °F 29.99 in ESE 0.8 mph 2.3 mph 97 % 0.01 in
03:18 58.2 °F 57.4 °F 29.98 in ESE 0.6 mph 2.3 mph 97 % 0.01 in
03:23 58.2 °F 57.4 °F 29.97 in ESE 1.4 mph 2.3 mph 97 % 0.01 in
03:28 58.2 °F 57.4 °F 29.97 in East 1.2 mph 3.5 mph 97 % 0.01 in
03:33 58.3 °F 57.5 °F 29.97 in East 1.1 mph 3.5 mph 97 % 0.01 in
03:38 58.3 °F 57.5 °F 29.97 in East 1.8 mph 3.5 mph 97 % 0.01 in
03:43 58.3 °F 57.5 °F 29.97 in East 1.1 mph 2.3 mph 97 % 0.01 in
03:48 58.4 °F 57.6 °F 29.97 in East 2.3 mph 3.5 mph 97 % 0.00 in
03:53 58.4 °F 57.6 °F 29.96 in ESE 1.1 mph 3.5 mph 97 % 0.00 in
03:58 58.4 °F 57.6 °F 29.96 in ESE 1.0 mph 2.3 mph 97 % 0.00 in
04:00 58.4 °F 57.6 °F 29.96 in East 1.7 mph 3.5 mph 97 % 0.00 in
04:05 58.4 °F 57.6 °F 29.96 in East 1.2 mph 3.5 mph 97 % 0.00 in
04:10 58.5 °F 57.7 °F 29.95 in ESE 2.2 mph 4.6 mph 97 % 0.01 in
04:15 58.5 °F 57.7 °F 29.95 in East 1.1 mph 2.3 mph 97 % 0.01 in
04:20 58.6 °F 57.8 °F 29.95 in East 0.5 mph 2.3 mph 97 % 0.02 in
04:25 58.6 °F 57.8 °F 29.95 in East 1.6 mph 3.5 mph 97 % 0.03 in
04:30 58.6 °F 57.8 °F 29.94 in East 1.6 mph 3.5 mph 97 % 0.03 in
04:35 58.7 °F 57.9 °F 29.94 in ESE 0.6 mph 1.2 mph 97 % 0.03 in
04:40 58.7 °F 57.9 °F 29.94 in ESE 1.1 mph 2.3 mph 97 % 0.03 in
04:45 58.7 °F 57.9 °F 29.94 in ESE 1.0 mph 7.0 mph 97 % 0.00 in
04:50 58.7 °F 57.9 °F 29.94 in ESE 1.0 mph 5.0 mph 97 % 0.01 in
04:55 58.7 °F 57.9 °F 29.94 in Calm   2.0 mph 97 % 0.00 in
05:00 58.6 °F 57.8 °F 29.94 in ESE 2.9 mph 5.0 mph 97 % 0.07 in
05:01 58.6 °F 57.8 °F 29.94 in ESE 2.9 mph 5.0 mph 97 % 0.07 in
05:06 58.6 °F 57.8 °F 29.94 in ESE 1.0 mph 3.5 mph 97 % 0.07 in
05:11 58.5 °F 57.7 °F 29.94 in SE 2.1 mph 3.5 mph 97 % 0.07 in
05:16 58.4 °F 57.6 °F 29.94 in ESE 0.9 mph 3.5 mph 97 % 0.07 in
05:21 58.4 °F 57.6 °F 29.95 in East 1.0 mph 2.3 mph 97 % 0.05 in
05:26 58.3 °F 57.5 °F 29.95 in East 0.5 mph 1.2 mph 97 % 0.05 in
05:31 58.3 °F 57.5 °F 29.95 in Calm   2.3 mph 97 % 0.05 in
05:36 58.3 °F 57.5 °F 29.96 in East 0.1 mph   97 % 0.05 in
05:41 58.3 °F 57.5 °F 29.95 in East 0.2 mph 2.3 mph 97 % 0.05 in
05:46 58.3 °F 57.5 °F 29.95 in East 0.2 mph 1.2 mph 97 % 0.04 in
05:52 58.3 °F 57.5 °F 29.95 in ESE 0.5 mph 1.2 mph 97 % 0.03 in
05:57 58.4 °F 57.6 °F 29.94 in ESE 1.2 mph 2.3 mph 97 % 0.01 in
06:02 58.4 °F 57.6 °F 29.94 in ESE 1.0 mph 2.3 mph 97 % 0.01 in
06:07 58.4 °F 57.6 °F 29.94 in ESE 1.0 mph 2.3 mph 97 % 0.00 in
06:12 58.4 °F 57.6 °F 29.93 in East 1.0 mph 2.3 mph 97 % 0.01 in
06:17 58.4 °F 57.6 °F 29.93 in East 1.0 mph 2.3 mph 97 % 0.01 in
06:22 58.4 °F 57.6 °F 29.93 in East 0.2 mph 2.3 mph 97 % 0.01 in
06:27 58.5 °F 57.7 °F 29.93 in Calm   1.2 mph 97 % 0.01 in
06:32 58.5 °F 57.7 °F 29.93 in East 1.5 mph 2.3 mph 97 % 0.01 in
06:37 58.5 °F 57.7 °F 29.93 in ESE 0.6 mph 2.0 mph 97 % 0.01 in
06:43 58.5 °F 57.7 °F 29.94 in Calm   1.2 mph 97 % 0.01 in
06:48 58.5 °F 57.7 °F 29.93 in East 1.8 mph 3.5 mph 97 % 0.01 in
06:53 58.6 °F 57.8 °F 29.93 in Calm   1.2 mph 97 % 0.01 in
06:58 58.6 °F 57.8 °F 29.93 in East 0.4 mph 3.5 mph 97 % 0.01 in
07:03 58.6 °F 57.8 °F 29.93 in East 0.1 mph 2.3 mph 97 % 0.01 in
07:08 58.7 °F 57.9 °F 29.93 in East 0.3 mph 1.2 mph 97 % 0.01 in
07:13 58.8 °F 58.0 °F 29.92 in ESE 0.9 mph 3.5 mph 97 % 0.00 in
07:18 58.9 °F 58.3 °F 29.92 in ESE 0.8 mph 2.3 mph 98 % 0.00 in
07:23 58.9 °F 58.3 °F 29.92 in ESE 0.8 mph 2.3 mph 98 % 0.00 in
07:28 59.1 °F 58.5 °F 29.92 in East 1.1 mph 3.5 mph 98 % 0.00 in
07:33 59.1 °F 58.5 °F 29.92 in East 0.3 mph 1.2 mph 98 % 0.00 in
07:38 59.2 °F 58.3 °F 29.92 in East 0.9 mph 2.3 mph 97 % 0.00 in
07:43 59.3 °F 58.4 °F 29.92 in SE 1.7 mph 4.0 mph 97 % 0.00 in
07:49 59.4 °F 58.5 °F 29.91 in ESE 0.9 mph 2.0 mph 97 % 0.00 in
07:54 59.4 °F 58.5 °F 29.91 in ESE 0.7 mph 2.3 mph 97 % 0.00 in
07:59 59.5 °F 58.6 °F 29.91 in ESE 0.2 mph 2.3 mph 97 % 0.00 in
08:04 59.6 °F 59.0 °F 29.91 in East 2.0 mph 2.3 mph 98 % 0.00 in
08:09 59.6 °F 59.0 °F 29.91 in ENE 0.4 mph 2.3 mph 98 % 0.00 in
08:14 59.8 °F 59.2 °F 29.90 in ESE 0.9 mph 2.3 mph 98 % 0.00 in
08:19 59.8 °F 59.2 °F 29.90 in ESE 1.5 mph 3.5 mph 98 % 0.00 in
08:24 59.9 °F 59.3 °F 29.90 in ESE 0.8 mph 2.3 mph 98 % 0.00 in
08:29 60.0 °F 59.4 °F 29.90 in ESE 0.3 mph 2.3 mph 98 % 0.00 in
08:34 60.0 °F 59.4 °F 29.90 in SE 1.7 mph 3.5 mph 98 % 0.00 in
08:39 60.2 °F 59.6 °F 29.90 in ESE 1.5 mph 3.5 mph 98 % 0.00 in
08:44 60.3 °F 59.7 °F 29.89 in SE 1.3 mph 5.0 mph 98 % 0.00 in
08:49 60.4 °F 59.8 °F 29.90 in East 1.0 mph 2.3 mph 98 % 0.00 in
08:54 60.5 °F 59.9 °F 29.90 in Calm   3.5 mph 98 % 0.00 in
08:59 60.5 °F 59.9 °F 29.89 in ESE 1.2 mph 3.5 mph 98 % 0.00 in
09:04 60.6 °F 60.0 °F 29.89 in ESE 1.3 mph 2.3 mph 98 % 0.00 in
09:09 60.7 °F 60.1 °F 29.89 in East 1.0 mph 3.5 mph 98 % 0.00 in
09:14 60.7 °F 60.1 °F 29.88 in ESE 0.8 mph 3.0 mph 98 % 0.00 in
09:19 60.9 °F 60.3 °F 29.88 in East 1.7 mph 4.6 mph 98 % 0.00 in
09:24 61.0 °F 60.4 °F 29.88 in ESE 1.4 mph 3.5 mph 98 % 0.00 in
09:29 61.1 °F 60.5 °F 29.88 in ESE 0.9 mph 6.9 mph 98 % 0.00 in
09:34 61.2 °F 60.6 °F 29.88 in ESE 1.9 mph 4.0 mph 98 % 0.00 in
09:39 61.4 °F 60.8 °F 29.87 in ESE 1.4 mph 3.5 mph 98 % 0.00 in
09:44 61.6 °F 61.0 °F 29.87 in SE 1.5 mph 5.8 mph 98 % 0.00 in
09:49 61.7 °F 61.1 °F 29.87 in ESE 0.9 mph 3.5 mph 98 % 0.00 in
09:54 61.7 °F 61.1 °F 29.86 in ESE 0.9 mph 2.3 mph 98 % 0.00 in
09:59 61.8 °F 61.2 °F 29.86 in ESE 0.7 mph 2.3 mph 98 % 0.00 in
10:04 61.9 °F 61.3 °F 29.86 in East 0.7 mph 3.5 mph 98 % 0.00 in
10:09 62.0 °F 61.4 °F 29.86 in ESE 1.5 mph 3.5 mph 98 % 0.00 in
10:14 62.1 °F 61.5 °F 29.85 in SE 1.3 mph 3.5 mph 98 % 0.00 in
10:19 62.3 °F 61.7 °F 29.85 in ESE 2.8 mph 6.9 mph 98 % 0.00 in
10:24 62.3 °F 61.7 °F 29.85 in ESE 0.6 mph 3.5 mph 98 % 0.00 in
10:29 62.4 °F 61.8 °F 29.85 in ESE 1.0 mph 3.5 mph 98 % 0.01 in
10:34 62.6 °F 62.0 °F 29.84 in ESE 0.8 mph 3.5 mph 98 % 0.02 in
10:39 62.7 °F 62.1 °F 29.84 in ESE 0.5 mph 1.2 mph 98 % 0.02 in
10:44 62.8 °F 62.2 °F 29.83 in ESE 0.9 mph 2.3 mph 98 % 0.03 in
10:49 62.9 °F 62.3 °F 29.83 in ESE 1.0 mph 2.3 mph 98 % 0.03 in
10:54 63.0 °F 62.4 °F 29.83 in ESE 0.4 mph 2.3 mph 98 % 0.03 in
10:59 63.1 °F 62.5 °F 29.83 in ESE 1.2 mph 2.3 mph 98 % 0.03 in
11:04 63.2 °F 62.6 °F 29.83 in ESE 1.0 mph 4.6 mph 98 % 0.04 in
11:09 63.3 °F 62.7 °F 29.83 in ESE 1.0 mph 2.0 mph 98 % 0.04 in
11:14 63.5 °F 62.9 °F 29.82 in ESE 0.7 mph 2.0 mph 98 % 0.04 in
11:19 63.6 °F 63.0 °F 29.82 in Calm   1.2 mph 98 % 0.04 in
11:24 63.7 °F 63.1 °F 29.82 in SE 2.0 mph 6.0 mph 98 % 0.04 in
11:29 63.9 °F 63.3 °F 29.82 in SE 1.5 mph 3.5 mph 98 % 0.03 in
11:34 64.1 °F 63.5 °F 29.82 in SE 2.0 mph 3.5 mph 98 % 0.02 in
11:39 64.4 °F 63.8 °F 29.82 in SE 1.1 mph 3.5 mph 98 % 0.02 in
11:45 64.7 °F 64.1 °F 29.82 in Calm   2.3 mph 98 % 0.01 in
11:50 64.8 °F 64.2 °F 29.82 in Calm   3.5 mph 98 % 0.01 in
11:55 64.9 °F 64.3 °F 29.81 in SE 1.0 mph 3.0 mph 98 % 0.01 in
12:00 65.1 °F 64.5 °F 29.81 in Calm     98 % 0.01 in
12:05 65.3 °F 64.7 °F 29.81 in Calm     98 % 0.00 in
12:10 65.5 °F 64.9 °F 29.81 in West 1.4 mph 3.5 mph 98 % 0.00 in
12:15 65.7 °F 65.1 °F 29.80 in West 0.4 mph 2.3 mph 98 % 0.00 in
12:20 65.9 °F 65.3 °F 29.80 in Calm   3.5 mph 98 % 0.00 in
12:25 66.2 °F 65.6 °F 29.80 in WSW 1.0 mph 3.5 mph 98 % 0.00 in
12:30 66.5 °F 65.9 °F 29.80 in SW 0.9 mph 2.3 mph 98 % 0.00 in
12:35 66.7 °F 66.1 °F 29.79 in Calm     98 % 0.00 in
12:40 66.9 °F 66.3 °F 29.79 in Calm     98 % 0.00 in
12:46 67.2 °F 66.6 °F 29.79 in SSE 2.9 mph 3.5 mph 98 % 0.00 in
12:51 67.4 °F 66.8 °F 29.78 in Calm     98 % 0.00 in
12:56 67.9 °F 67.3 °F 29.78 in Calm   2.3 mph 98 % 0.00 in
13:01 68.3 °F 67.7 °F 29.78 in Calm   1.2 mph 98 % 0.00 in
13:06 68.7 °F 68.1 °F 29.78 in SSE 3.1 mph 3.5 mph 98 % 0.00 in
13:11 68.9 °F 68.3 °F 29.78 in SSE 0.2 mph 4.6 mph 98 % 0.00 in
13:16 69.2 °F 68.6 °F 29.78 in SSE 0.1 mph 1.2 mph 98 % 0.00 in
13:21 69.5 °F 68.9 °F 29.78 in SE 0.9 mph 2.3 mph 98 % 0.00 in
13:26 69.7 °F 69.1 °F 29.77 in South 0.8 mph 3.5 mph 98 % 0.00 in
13:31 69.9 °F 69.3 °F 29.77 in SSW 3.9 mph 6.9 mph 98 % 0.00 in
13:36 70.0 °F 69.4 °F 29.77 in SSW 4.8 mph 9.2 mph 98 % 0.00 in
13:41 70.1 °F 69.5 °F 29.77 in WNW 7.3 mph 10.4 mph 98 % 0.00 in
13:46 70.1 °F 69.5 °F 29.78 in SW 5.7 mph 11.5 mph 98 % 0.00 in
13:51 70.1 °F 69.2 °F 29.78 in WNW 6.4 mph 19.6 mph 97 % 0.00 in
13:56 70.0 °F 68.8 °F 29.78 in SW 6.4 mph 10.4 mph 96 % 0.00 in
14:01 69.8 °F 68.0 °F 29.78 in West 3.4 mph 11.5 mph 94 % 0.00 in
14:06 69.7 °F 67.6 °F 29.79 in WSW 5.9 mph 10.4 mph 93 % 0.00 in
14:11 69.4 °F 67.0 °F 29.79 in WSW 6.1 mph 8.1 mph 92 % 0.00 in
14:16 69.3 °F 66.9 °F 29.79 in West 3.5 mph 6.9 mph 92 % 0.00 in
14:21 69.1 °F 66.4 °F 29.79 in SW 2.1 mph 6.0 mph 91 % 0.00 in
14:26 68.9 °F 66.2 °F 29.79 in NW 4.2 mph 8.1 mph 91 % 0.00 in
14:31 68.7 °F 66.0 °F 29.79 in West 3.3 mph 6.0 mph 91 % 0.00 in
14:36 68.6 °F 65.9 °F 29.79 in SW 2.3 mph 5.8 mph 91 % 0.00 in
14:41 68.5 °F 65.4 °F 29.79 in WNW 4.8 mph 8.1 mph 90 % 0.00 in
14:46 68.2 °F 64.8 °F 29.79 in WSW 4.3 mph 6.0 mph 89 % 0.00 in
14:51 67.9 °F 64.5 °F 29.80 in WSW 1.6 mph 3.5 mph 89 % 0.00 in
14:56 67.5 °F 64.1 °F 29.80 in WSW 5.9 mph 11.5 mph 89 % 0.00 in
15:01 67.3 °F 63.9 °F 29.80 in West 4.0 mph 8.0 mph 89 % 0.00 in
15:06 67.1 °F 63.7 °F 29.80 in West 4.2 mph 6.9 mph 89 % 0.00 in
15:11 67.0 °F 63.6 °F 29.80 in West 4.2 mph 6.9 mph 89 % 0.00 in
15:16 66.8 °F 63.5 °F 29.80 in WNW 4.0 mph 5.0 mph 89 % 0.00 in
15:21 66.8 °F 63.5 °F 29.81 in SW 5.5 mph 11.5 mph 89 % 0.00 in
15:26 66.7 °F 63.4 °F 29.80 in West 4.3 mph 12.7 mph 89 % 0.00 in
15:31 66.7 °F 63.0 °F 29.80 in WNW 0.9 mph 8.1 mph 88 % 0.00 in
15:36 66.7 °F 63.0 °F 29.79 in SSW 4.4 mph 8.1 mph 88 % 0.00 in
15:42 66.9 °F 63.6 °F 29.79 in WNW 4.8 mph 8.1 mph 89 % 0.00 in
15:47 67.0 °F 63.3 °F 29.78 in WSW 3.1 mph 8.1 mph 88 % 0.00 in
15:52 67.1 °F 63.1 °F 29.78 in WNW 2.8 mph 6.9 mph 87 % 0.00 in
15:57 67.5 °F 64.1 °F 29.78 in WNW 2.9 mph 11.5 mph 89 % 0.00 in
16:02 67.5 °F 63.2 °F 29.78 in WNW 4.3 mph 6.9 mph 86 % 0.00 in
16:07 67.7 °F 63.4 °F 29.79 in West 1.4 mph 8.1 mph 86 % 0.00 in
16:12 67.8 °F 63.5 °F 29.79 in WSW 1.8 mph 3.5 mph 86 % 0.00 in
16:17 67.8 °F 63.5 °F 29.78 in Calm   1.2 mph 86 % 0.00 in
16:22 67.8 °F 63.5 °F 29.78 in WSW 0.6 mph 2.0 mph 86 % 0.00 in
16:27 67.8 °F 63.5 °F 29.78 in WSW 2.6 mph 5.8 mph 86 % 0.00 in
16:32 67.7 °F 63.4 °F 29.78 in WSW 0.4 mph 3.5 mph 86 % 0.00 in
16:37 67.6 °F 63.3 °F 29.78 in WSW 1.9 mph 9.2 mph 86 % 0.00 in
16:42 67.7 °F 63.4 °F 29.78 in SW 3.8 mph 8.0 mph 86 % 0.00 in
16:47 67.7 °F 63.4 °F 29.79 in WSW 5.0 mph 9.2 mph 86 % 0.00 in
16:52 67.7 °F 63.4 °F 29.79 in SW 1.2 mph 4.0 mph 86 % 0.00 in
16:57 67.8 °F 63.8 °F 29.80 in West 4.1 mph 6.9 mph 87 % 0.00 in
16:59 67.8 °F 63.8 °F 29.79 in West 5.4 mph 5.4 mph 87 % 0.00 in
17:04 67.9 °F 63.9 °F 29.80 in West 2.9 mph 3.5 mph 87 % 0.00 in
17:10 68.1 °F 64.4 °F 29.79 in West 1.1 mph 6.9 mph 88 % 0.00 in
17:15 68.3 °F 64.3 °F 29.80 in WSW 2.8 mph 5.8 mph 87 % 0.00 in
17:20 68.3 °F 63.9 °F 29.80 in WSW 3.1 mph 7.0 mph 86 % 0.00 in
17:25 68.5 °F 64.1 °F 29.80 in WSW 2.1 mph 5.8 mph 86 % 0.00 in
17:30 68.6 °F 63.9 °F 29.80 in WNW 6.5 mph 12.7 mph 85 % 0.00 in
17:35 68.6 °F 63.9 °F 29.80 in WNW 2.3 mph 5.8 mph 85 % 0.00 in
17:40 68.7 °F 64.0 °F 29.80 in SW 3.9 mph 6.0 mph 85 % 0.00 in
17:45 68.7 °F 64.0 °F 29.80 in West 1.7 mph 3.5 mph 85 % 0.00 in
17:50 68.8 °F 64.1 °F 29.80 in WSW 5.4 mph 6.9 mph 85 % 0.00 in
17:55 68.7 °F 63.7 °F 29.80 in West 1.6 mph 3.5 mph 84 % 0.00 in
18:00 68.6 °F 63.9 °F 29.80 in WNW 0.8 mph 2.0 mph 85 % 0.00 in
18:05 68.6 °F 63.6 °F 29.80 in WNW 2.3 mph 3.5 mph 84 % 0.00 in
18:10 68.5 °F 63.1 °F 29.80 in West 1.2 mph 3.5 mph 83 % 0.00 in
18:16 68.4 °F 62.7 °F 29.80 in WNW 3.6 mph 7.0 mph 82 % 0.00 in
18:21 68.3 °F 62.6 °F 29.80 in WNW 3.0 mph 7.0 mph 82 % 0.00 in
18:26 68.2 °F 62.5 °F 29.80 in West 2.0 mph 6.0 mph 82 % 0.00 in
18:31 68.1 °F 62.0 °F 29.80 in WSW 2.0 mph 8.0 mph 81 % 0.00 in
18:36 68.0 °F 61.9 °F 29.81 in WSW 5.0 mph 10.0 mph 81 % 0.00 in
18:41 67.9 °F 61.9 °F 29.81 in West 1.0 mph 6.0 mph 81 % 0.00 in
18:46 67.8 °F 61.8 °F 29.81 in West 3.0 mph 8.0 mph 81 % 0.00 in
18:51 67.7 °F 62.0 °F 29.81 in Calm   6.0 mph 82 % 0.00 in
18:56 67.6 °F 61.9 °F 29.81 in Calm   6.0 mph 82 % 0.00 in
19:01 67.5 °F 61.8 °F 29.81 in WNW 0.6 mph 1.2 mph 82 % 0.00 in
19:06 67.3 °F 61.6 °F 29.81 in West 1.0 mph 5.0 mph 82 % 0.00 in
19:11 67.2 °F 61.5 °F 29.82 in WSW 1.6 mph 1.6 mph 82 % 0.00 in
19:16 67.0 °F 61.7 °F 29.82 in Calm   3.5 mph 83 % 0.00 in
19:21 67.0 °F 61.7 °F 29.82 in WSW 1.0 mph 3.0 mph 83 % 0.00 in
19:26 66.8 °F 61.5 °F 29.82 in Calm     83 % 0.00 in
19:31 66.7 °F 61.7 °F 29.82 in Calm   2.0 mph 84 % 0.00 in
19:36 66.6 °F 61.6 °F 29.82 in Calm     84 % 0.00 in
19:41 66.4 °F 61.4 °F 29.82 in Calm   1.0 mph 84 % 0.00 in
19:46 66.2 °F 61.6 °F 29.82 in Calm     85 % 0.00 in
19:51 66.1 °F 61.4 °F 29.82 in Calm     85 % 0.00 in
19:56 65.8 °F 61.2 °F 29.82 in Calm   1.0 mph 85 % 0.00 in
20:01 65.6 °F 61.3 °F 29.82 in Calm     86 % 0.00 in
20:06 65.4 °F 61.1 °F 29.83 in Calm   1.0 mph 86 % 0.00 in
20:11 65.2 °F 61.2 °F 29.82 in Calm   3.5 mph 87 % 0.00 in
20:16 64.9 °F 60.9 °F 29.82 in Calm     87 % 0.00 in
20:21 64.8 °F 60.8 °F 29.82 in Calm   1.0 mph 87 % 0.00 in
20:26 64.6 °F 60.6 °F 29.82 in Calm   4.0 mph 87 % 0.00 in
20:31 64.4 °F 60.4 °F 29.83 in WSW 0.5 mph 1.2 mph 87 % 0.00 in
20:36 64.2 °F 60.2 °F 29.83 in Calm   2.0 mph 87 % 0.00 in
20:41 64.1 °F 60.1 °F 29.83 in Calm   2.0 mph 87 % 0.00 in
20:46 63.9 °F 60.3 °F 29.83 in Calm   3.0 mph 88 % 0.00 in
20:51 63.8 °F 60.2 °F 29.84 in Calm   3.0 mph 88 % 0.00 in
20:55 63.6 °F 60.0 °F 29.83 in SW 0.8 mph 1.2 mph 88 % 0.00 in
20:58 63.6 °F 60.0 °F 29.83 in SW 0.1 mph 1.2 mph 88 % 0.00 in
21:03 63.4 °F 59.8 °F 29.83 in West 1.2 mph 3.0 mph 88 % 0.00 in
21:08 63.4 °F 59.8 °F 29.83 in Calm   1.2 mph 88 % 0.00 in
21:13 63.4 °F 59.8 °F 29.83 in Calm   1.2 mph 88 % 0.00 in
21:19 63.4 °F 59.8 °F 29.84 in WSW 0.4 mph 3.5 mph 88 % 0.00 in
21:24 63.4 °F 59.8 °F 29.84 in Calm   2.3 mph 88 % 0.00 in
21:29 63.4 °F 59.8 °F 29.84 in Calm   2.3 mph 88 % 0.00 in
21:34 63.4 °F 59.8 °F 29.84 in WSW 1.5 mph 4.6 mph 88 % 0.00 in
21:39 63.4 °F 59.8 °F 29.84 in SW 4.2 mph 12.7 mph 88 % 0.00 in
21:44 63.4 °F 59.8 °F 29.84 in Calm   1.2 mph 88 % 0.00 in
21:49 63.5 °F 59.9 °F 29.84 in West 0.4 mph 8.1 mph 88 % 0.00 in
21:54 63.6 °F 60.0 °F 29.84 in WSW 2.8 mph 5.8 mph 88 % 0.00 in
21:59 63.7 °F 60.1 °F 29.84 in WSW 1.8 mph 3.5 mph 88 % 0.00 in
22:04 63.8 °F 60.2 °F 29.84 in WSW 0.9 mph 3.5 mph 88 % 0.00 in
22:09 63.9 °F 60.3 °F 29.84 in Calm   1.2 mph 88 % 0.00 in
22:14 63.9 °F 60.0 °F 29.84 in WSW 2.5 mph 5.8 mph 87 % 0.00 in
22:19 63.9 °F 60.0 °F 29.84 in WSW 0.5 mph 3.5 mph 87 % 0.00 in
22:24 64.0 °F 60.1 °F 29.84 in West 0.6 mph 3.5 mph 87 % 0.00 in
22:29 63.9 °F 60.0 °F 29.84 in SSW 0.8 mph 3.5 mph 87 % 0.00 in
22:34 63.8 °F 59.9 °F 29.84 in WSW 2.0 mph 3.5 mph 87 % 0.00 in
22:39 63.8 °F 59.9 °F 29.85 in SW 2.6 mph 4.6 mph 87 % 0.00 in
22:44 63.8 °F 60.2 °F 29.85 in WSW 0.6 mph 2.3 mph 88 % 0.00 in
22:49 63.8 °F 60.2 °F 29.84 in SW 2.1 mph 4.6 mph 88 % 0.00 in
22:54 63.8 °F 60.2 °F 29.85 in SW 2.9 mph 8.1 mph 88 % 0.00 in
23:00 63.9 °F 60.3 °F 29.85 in WNW 1.7 mph 3.5 mph 88 % 0.00 in
23:05 64.0 °F 60.4 °F 29.84 in West 4.0 mph 8.1 mph 88 % 0.00 in
23:10 64.2 °F 60.6 °F 29.84 in West 4.2 mph 10.4 mph 88 % 0.00 in
23:16 64.4 °F 60.4 °F 29.85 in WSW 2.1 mph 9.2 mph 87 % 0.00 in
23:20 64.7 °F 60.7 °F 29.85 in SSW 0.3 mph 1.2 mph 87 % 0.00 in
23:25 64.8 °F 60.5 °F 29.84 in WSW 3.1 mph 3.5 mph 86 % 0.00 in
23:30 65.0 °F 60.7 °F 29.84 in WSW 3.4 mph 8.1 mph 86 % 0.00 in
23:35 65.0 °F 60.7 °F 29.84 in West 0.3 mph 2.3 mph 86 % 0.00 in
23:40 65.1 °F 60.5 °F 29.84 in WSW 3.0 mph 6.9 mph 85 % 0.00 in
23:45 65.1 °F 60.5 °F 29.84 in SW 1.9 mph 3.5 mph 85 % 0.00 in
23:50 65.1 °F 60.1 °F 29.85 in WSW 2.8 mph 6.9 mph 84 % 0.00 in
23:55 65.1 °F 60.1 °F 29.85 in WSW 1.4 mph 3.5 mph 84 % 0.00 in
Crab Meadow Weather
Compliments of Weather Underground - 3 mb

Script developed by  Jim McMurry - jmcmurry@mwt.net Adapted for the template by  Wim van der Kuil - Leuven-Template.eu

Recycling: Americans use 85,000,000 tons of paper a year; about 680 pounds per person.